timestamp,wind_dir_avg,wind_spd_max_dir,wind_spd_avg,wind_spd_gust,battery_voltage,lat,long
2018-01-13 00:00:00+00:00,227.0,229.0,8.7,10.07,,47.59359,-54.27349
2018-01-13 00:10:00+00:00,224.0,227.0,11.5,12.65,,47.59359,-54.27349
2018-01-13 00:20:00+00:00,225.0,229.0,11.44,12.62,,47.59359,-54.27349
2018-01-13 00:30:00+00:00,225.0,221.0,11.63,13.31,,47.59359,-54.27349
2018-01-13 00:40:00+00:00,225.0,226.0,10.33,11.36,,47.59359,-54.27349
2018-01-13 00:50:00+00:00,226.0,228.0,9.4,11.33,,47.59359,-54.27349
2018-01-13 01:00:00+00:00,220.0,225.0,9.08,11.18,,47.59359,-54.27349
2018-01-13 01:10:00+00:00,219.0,227.0,9.3,10.7,,47.59359,-54.27349
2018-01-13 01:20:00+00:00,232.0,237.0,7.48,9.66,,47.59359,-54.27349
2018-01-13 01:30:00+00:00,218.0,218.0,8.53,9.66,,47.59359,-54.27349
2018-01-13 01:40:00+00:00,219.0,221.0,9.76,10.97,,47.59359,-54.27349
2018-01-13 01:50:00+00:00,219.0,215.0,9.82,11.15,,47.59359,-54.27349
2018-01-13 02:00:00+00:00,222.0,223.0,10.94,13.1,,47.59359,-54.27349
2018-01-13 02:10:00+00:00,221.0,223.0,12.02,13.26,,47.59359,-54.27349
2018-01-13 02:20:00+00:00,223.0,219.0,10.47,11.81,,47.59359,-54.27349
2018-01-13 02:30:00+00:00,225.0,227.0,9.94,11.1,,47.59359,-54.27349
2018-01-13 02:40:00+00:00,224.0,218.0,12.29,14.62,,47.59359,-54.27349
2018-01-13 02:50:00+00:00,224.0,224.0,13.96,15.69,,47.59359,-54.27349
2018-01-13 03:00:00+00:00,226.0,227.0,13.01,14.91,,47.59359,-54.27349
2018-01-13 03:10:00+00:00,225.0,225.0,13.35,14.58,,47.59359,-54.27349
2018-01-13 03:20:00+00:00,226.0,225.0,12.57,14.17,,47.59359,-54.27349
2018-01-13 03:30:00+00:00,228.0,230.0,12.59,14.33,,47.59359,-54.27349
2018-01-13 03:40:00+00:00,227.0,227.0,12.38,14.17,,47.59359,-54.27349
2018-01-13 03:50:00+00:00,226.0,226.0,12.78,13.97,,47.59359,-54.27349
2018-01-13 04:00:00+00:00,225.0,224.0,13.22,14.72,,47.59359,-54.27349
2018-01-13 04:10:00+00:00,228.0,231.0,13.55,15.33,,47.59359,-54.27349
2018-01-13 04:20:00+00:00,232.0,230.0,12.85,14.49,,47.59359,-54.27349
2018-01-13 04:30:00+00:00,229.0,228.0,12.95,14.76,,47.59359,-54.27349
2018-01-13 04:40:00+00:00,226.0,223.0,13.01,15.29,,47.59359,-54.27349
2018-01-13 04:50:00+00:00,229.0,226.0,12.99,14.91,,47.59359,-54.27349
2018-01-13 05:00:00+00:00,228.0,231.0,13.54,16.61,,47.59359,-54.27349
2018-01-13 05:10:00+00:00,228.0,230.0,14.42,16.63,,47.59359,-54.27349
2018-01-13 05:20:00+00:00,228.0,230.0,13.91,16.69,,47.59359,-54.27349
2018-01-13 05:30:00+00:00,224.0,223.0,14.39,15.71,,47.59359,-54.27349
2018-01-13 05:40:00+00:00,223.0,223.0,13.55,15.51,,47.59359,-54.27349
2018-01-13 05:50:00+00:00,223.0,222.0,14.36,15.74,,47.59359,-54.27349
2018-01-13 06:00:00+00:00,224.0,222.0,13.9,15.7,,47.59359,-54.27349
2018-01-13 06:10:00+00:00,223.0,223.0,14.14,15.71,,47.59359,-54.27349
2018-01-13 06:20:00+00:00,223.0,227.0,12.9,14.4,,47.59359,-54.27349
2018-01-13 06:30:00+00:00,221.0,224.0,13.37,15.13,,47.59359,-54.27349
2018-01-13 06:40:00+00:00,221.0,224.0,12.7,14.48,,47.59359,-54.27349
2018-01-13 06:50:00+00:00,222.0,222.0,12.53,14.15,,47.59359,-54.27349
2018-01-13 07:00:00+00:00,221.0,225.0,12.78,14.7,,47.59359,-54.27349
2018-01-13 07:10:00+00:00,222.0,225.0,13.02,15.02,,47.59359,-54.27349
2018-01-13 07:20:00+00:00,222.0,224.0,12.34,13.98,,47.59359,-54.27349
2018-01-13 07:30:00+00:00,225.0,227.0,13.5,15.47,,47.59359,-54.27349
2018-01-13 07:40:00+00:00,225.0,229.0,13.21,14.58,,47.59359,-54.27349
2018-01-13 07:50:00+00:00,224.0,225.0,13.82,16.56,,47.59359,-54.27349
2018-01-13 08:00:00+00:00,228.0,231.0,15.12,18.84,,47.59359,-54.27349
2018-01-13 08:10:00+00:00,227.0,224.0,16.14,18.09,,47.59359,-54.27349
2018-01-13 08:20:00+00:00,226.0,228.0,16.27,19.21,,47.59359,-54.27349
2018-01-13 08:30:00+00:00,223.0,224.0,15.83,17.83,,47.59359,-54.27349
2018-01-13 08:40:00+00:00,225.0,228.0,14.03,15.81,,47.59359,-54.27349
2018-01-13 08:50:00+00:00,224.0,224.0,13.55,15.36,,47.59359,-54.27349
2018-01-13 09:00:00+00:00,224.0,225.0,14.05,15.45,,47.59359,-54.27349
2018-01-13 09:10:00+00:00,223.0,223.0,13.12,14.49,,47.59359,-54.27349
2018-01-13 09:20:00+00:00,224.0,226.0,14.1,17.35,,47.59359,-54.27349
2018-01-13 09:30:00+00:00,224.0,227.0,13.32,16.06,,47.59359,-54.27349
2018-01-13 09:40:00+00:00,225.0,232.0,13.82,15.91,,47.59359,-54.27349
2018-01-13 09:50:00+00:00,224.0,227.0,12.75,15.32,,47.59359,-54.27349
2018-01-13 10:00:00+00:00,223.0,225.0,12.74,15.54,,47.59359,-54.27349
2018-01-13 10:10:00+00:00,222.0,221.0,11.73,13.92,,47.59359,-54.27349
2018-01-13 10:20:00+00:00,227.0,228.0,14.45,16.41,,47.59359,-54.27349
2018-01-13 10:30:00+00:00,226.0,229.0,14.25,16.98,,47.59359,-54.27349
2018-01-13 10:40:00+00:00,226.0,221.0,14.95,17.47,,47.59359,-54.27349
2018-01-13 10:50:00+00:00,229.0,228.0,13.6,16.04,,47.59359,-54.27349
2018-01-13 11:00:00+00:00,224.0,224.0,15.98,18.95,,47.59359,-54.27349
2018-01-13 11:10:00+00:00,224.0,224.0,15.41,18.08,,47.59359,-54.27349
2018-01-13 11:20:00+00:00,224.0,222.0,14.74,16.76,,47.59359,-54.27349
2018-01-13 11:30:00+00:00,225.0,228.0,14.25,15.99,,47.59359,-54.27349
2018-01-13 11:40:00+00:00,223.0,221.0,13.18,15.3,,47.59359,-54.27349
2018-01-13 11:50:00+00:00,225.0,230.0,13.27,15.57,,47.59359,-54.27349
2018-01-13 12:00:00+00:00,223.0,228.0,13.14,14.92,,47.59359,-54.27349
2018-01-13 12:10:00+00:00,223.0,228.0,13.59,15.71,,47.59359,-54.27349
2018-01-13 12:20:00+00:00,220.0,216.0,13.22,14.79,,47.59359,-54.27349
2018-01-13 12:30:00+00:00,221.0,216.0,12.53,14.73,,47.59359,-54.27349
2018-01-13 12:40:00+00:00,220.0,219.0,14.08,15.86,,47.59359,-54.27349
2018-01-13 12:50:00+00:00,222.0,218.0,14.74,17.8,,47.59359,-54.27349
2018-01-13 13:00:00+00:00,224.0,228.0,14.27,16.64,,47.59359,-54.27349
2018-01-13 13:10:00+00:00,222.0,223.0,13.06,15.47,,47.59359,-54.27349
2018-01-13 13:20:00+00:00,223.0,221.0,12.88,14.84,,47.59359,-54.27349
2018-01-13 13:30:00+00:00,222.0,230.0,12.35,14.82,,47.59359,-54.27349
2018-01-13 13:40:00+00:00,225.0,229.0,13.58,15.76,,47.59359,-54.27349
2018-01-13 13:50:00+00:00,229.0,234.0,14.49,16.57,,47.59359,-54.27349
2018-01-13 14:00:00+00:00,227.0,229.0,16.48,19.47,,47.59359,-54.27349
2018-01-13 14:10:00+00:00,226.0,221.0,17.08,20.02,,47.59359,-54.27349
2018-01-13 14:20:00+00:00,227.0,229.0,16.12,18.69,,47.59359,-54.27349
2018-01-13 14:30:00+00:00,224.0,227.0,15.72,19.12,,47.59359,-54.27349
2018-01-13 14:40:00+00:00,222.0,235.0,14.72,17.94,,47.59359,-54.27349
2018-01-13 14:50:00+00:00,223.0,226.0,14.14,17.2,,47.59359,-54.27349
2018-01-13 15:00:00+00:00,221.0,221.0,13.75,16.43,,47.59359,-54.27349
2018-01-13 15:10:00+00:00,222.0,221.0,13.88,15.86,,47.59359,-54.27349
2018-01-13 15:20:00+00:00,223.0,223.0,14.01,15.89,,47.59359,-54.27349
2018-01-13 15:30:00+00:00,224.0,227.0,13.61,16.31,,47.59359,-54.27349
2018-01-13 15:40:00+00:00,228.0,234.0,15.28,17.77,,47.59359,-54.27349
2018-01-13 15:50:00+00:00,230.0,231.0,15.68,18.91,,47.59359,-54.27349
2018-01-13 16:00:00+00:00,228.0,224.0,15.38,18.85,,47.59359,-54.27349
2018-01-13 16:10:00+00:00,227.0,236.0,15.56,18.81,,47.59359,-54.27349
2018-01-13 16:20:00+00:00,229.0,229.0,15.11,17.99,,47.59359,-54.27349
2018-01-13 16:30:00+00:00,229.0,230.0,14.98,17.85,,47.59359,-54.27349
2018-01-13 16:40:00+00:00,228.0,233.0,14.89,17.7,,47.59359,-54.27349
2018-01-13 16:50:00+00:00,230.0,229.0,16.38,18.14,,47.59359,-54.27349
2018-01-13 17:00:00+00:00,225.0,220.0,12.91,14.98,,47.59359,-54.27349
2018-01-13 17:10:00+00:00,220.0,227.0,13.85,18.4,,47.59359,-54.27349
2018-01-13 17:20:00+00:00,220.0,222.0,12.67,14.58,,47.59359,-54.27349
2018-01-13 17:30:00+00:00,219.0,214.0,11.52,13.23,,47.59359,-54.27349
2018-01-13 17:40:00+00:00,217.0,218.0,11.3,12.96,,47.59359,-54.27349
2018-01-13 17:50:00+00:00,219.0,217.0,12.8,14.35,,47.59359,-54.27349
2018-01-13 18:00:00+00:00,220.0,219.0,12.09,14.31,,47.59359,-54.27349
2018-01-13 18:10:00+00:00,221.0,217.0,11.95,14.2,,47.59359,-54.27349
2018-01-13 18:20:00+00:00,220.0,225.0,11.47,12.87,,47.59359,-54.27349
2018-01-13 18:30:00+00:00,224.0,231.0,11.31,13.67,,47.59359,-54.27349
2018-01-13 18:40:00+00:00,220.0,217.0,12.61,14.67,,47.59359,-54.27349
2018-01-13 18:50:00+00:00,227.0,226.0,14.19,16.78,,47.59359,-54.27349
2018-01-13 19:00:00+00:00,232.0,234.0,14.32,17.25,,47.59359,-54.27349
2018-01-13 19:10:00+00:00,234.0,234.0,14.46,17.0,,47.59359,-54.27349
2018-01-13 19:20:00+00:00,233.0,235.0,15.11,18.17,,47.59359,-54.27349
2018-01-13 19:30:00+00:00,225.0,231.0,16.39,19.35,,47.59359,-54.27349
2018-01-13 19:40:00+00:00,226.0,228.0,16.58,19.67,,47.59359,-54.27349
2018-01-13 19:50:00+00:00,227.0,230.0,16.25,18.81,,47.59359,-54.27349
2018-01-13 20:00:00+00:00,226.0,234.0,16.68,20.11,,47.59359,-54.27349
2018-01-13 20:10:00+00:00,224.0,225.0,17.77,20.9,,47.59359,-54.27349
2018-01-13 20:20:00+00:00,225.0,227.0,17.38,20.36,,47.59359,-54.27349
2018-01-13 20:30:00+00:00,228.0,226.0,16.16,20.68,,47.59359,-54.27349
2018-01-13 20:40:00+00:00,225.0,224.0,15.53,19.34,,47.59359,-54.27349
2018-01-13 20:50:00+00:00,225.0,220.0,17.54,20.24,,47.59359,-54.27349
2018-01-13 21:00:00+00:00,225.0,228.0,17.38,19.71,,47.59359,-54.27349
2018-01-13 21:10:00+00:00,224.0,226.0,15.86,19.1,,47.59359,-54.27349
2018-01-13 21:20:00+00:00,226.0,231.0,16.31,20.15,,47.59359,-54.27349
2018-01-13 21:30:00+00:00,224.0,226.0,16.46,21.13,,47.59359,-54.27349
2018-01-13 21:40:00+00:00,225.0,221.0,16.7,19.63,,47.59359,-54.27349
2018-01-13 21:50:00+00:00,221.0,222.0,16.34,19.32,,47.59359,-54.27349
2018-01-13 22:00:00+00:00,218.0,226.0,15.13,18.96,,47.59359,-54.27349
2018-01-13 22:10:00+00:00,221.0,223.0,16.03,20.56,,47.59359,-54.27349
2018-01-13 22:20:00+00:00,226.0,228.0,17.16,20.95,,47.59359,-54.27349
2018-01-13 22:30:00+00:00,234.0,231.0,17.59,21.51,,47.59359,-54.27349
2018-01-13 22:40:00+00:00,232.0,254.0,15.56,18.5,,47.59359,-54.27349
2018-01-13 22:50:00+00:00,229.0,228.0,15.92,20.22,,47.59359,-54.27349
2018-01-13 23:00:00+00:00,229.0,234.0,15.82,19.22,,47.59359,-54.27349
2018-01-13 23:10:00+00:00,235.0,234.0,18.9,23.76,,47.59359,-54.27349
2018-01-13 23:20:00+00:00,236.0,239.0,20.19,24.0,,47.59359,-54.27349
2018-01-13 23:30:00+00:00,233.0,243.0,16.54,23.71,,47.59359,-54.27349
2018-01-13 23:40:00+00:00,233.0,249.0,15.25,19.87,,47.59359,-54.27349
2018-01-13 23:50:00+00:00,237.0,242.0,16.4,19.86,,47.59359,-54.27349
